Cork, Ireland

1:07 PM IST on September 22, 2017 (GMT +0100)
Cork

Weather History for EICK - January, 2014

Change the Weather History Date:

Friday, January 10, 2014

  Actual Average Record
Temperature  
Mean Temperature 40 °F -  
Max Temperature 47 °F 46 °F 55 °F (1998)
Min Temperature 34 °F 37 °F 28 °F (1999)
Degree Days  
Heating Degree Days 24    
Moisture  
Dew Point 42 °F    
Average Humidity 91    
Maximum Humidity 100    
Minimum Humidity 70    
Precipitation  
Precipitation 0.08 in 0.18 in - ()
Sea Level Pressure  
Sea Level Pressure 29.80 in    
Wind  
Wind Speed 11 mph ()    
Max Wind Speed 20 mph    
Max Gust Speed 32 mph    
Visibility 6.9 miles    
Events Rain    
Averages and records for this station are not official NWS values.
T = Trace of Precipitation, MM = Missing Value Source: Averaged Metar Reports

Daily Weather History Graph

Daily Weather History Graph

Search for Another Location

Airport or City:

Trip Planner

Search our weather history database for the weather conditions in past years. The results will help you decide how hot, cold, wet, or windy it might be!

Date:

Astronomy

Jan. 10, 2014 Rise Set
Actual Time 8:38 AM GMT 4:45 PM GMT
Civil Twilight 7:58 AM GMT 5:24 PM GMT
Nautical Twilight 7:15 AM GMT 6:07 PM GMT
Astronomical Twilight 6:35 AM GMT 6:47 PM GMT
Moon 12:52 PM GMT (1/10) 3:18 AM GMT (1/10)
Length of Visible Light 9h 26m
Length of Day
8h 07m
Waxing Gibbous, 73% of the Moon is Illuminated
Jan 10
Waxing Gibbous
Jan 16
Full
Jan 24
Last Quarter
Jan 30
New
Feb 6
First Quarter

Hourly Weather History & Observations

Time (GMT) Temp. Windchill Dew Point Humidity Pressure Visibility Wind Dir Wind Speed Gust Speed Precip Events Conditions
12:00 AM 41.0 °F 36.4 °F 39.2 °F 93% 29.83 in 6.2 mi SSW 6.9 mph - N/A   Overcast
12:30 AM 42.8 °F 36.6 °F 41.0 °F 93% 29.80 in 6.2 mi SSW 11.5 mph - N/A   Overcast
1:00 AM 44 °F - 42 °F 89% 29.83 in 16 mi SSW 11.2 mph - -   Overcast
1:00 AM 42.8 °F 36.6 °F 41.0 °F 93% 29.80 in 6.2 mi SSW 11.5 mph - N/A   Overcast
1:30 AM 42.8 °F 37.5 °F 41.0 °F 93% 29.80 in 6.2 mi SSW 9.2 mph - N/A   Mostly Cloudy
2:00 AM 44 °F - 42 °F 90% 29.81 in 16 mi South 8.9 mph - -   Scattered Clouds
2:00 AM 44.6 °F 39.7 °F 42.8 °F 93% 29.80 in 6.2 mi South 9.2 mph - N/A   Mostly Cloudy
2:30 AM 44.6 °F 39.2 °F 42.8 °F 93% 29.77 in 6.2 mi SSW 10.4 mph - N/A   Mostly Cloudy
3:00 AM 45 °F - 43 °F 91% 29.81 in 16 mi SSW 11.2 mph - -   Partly Cloudy
3:00 AM 44.6 °F 39.2 °F 42.8 °F 93% 29.77 in 6.2 mi SSW 10.4 mph - N/A   Mostly Cloudy
3:30 AM 44.6 °F 38.4 °F 42.8 °F 93% 29.77 in 6.2 mi SSW 12.7 mph - N/A   Mostly Cloudy
4:00 AM 45 °F - 44 °F 92% 29.79 in 16 mi SSW 11.2 mph - -   Mostly Cloudy
4:00 AM 44.6 °F 39.2 °F 42.8 °F 93% 29.77 in 6.2 mi SSW 10.4 mph - N/A   Mostly Cloudy
4:30 AM 46.4 °F 40.4 °F 42.8 °F 87% 29.77 in 6.2 mi SSW 13.8 mph - N/A   Mostly Cloudy
5:00 AM 46 °F - 44 °F 88% 29.78 in 16 mi SSW 13.4 mph - -   Mostly Cloudy
5:00 AM 46.4 °F 40.4 °F 42.8 °F 87% 29.77 in 6.2 mi SSW 13.8 mph - N/A   Mostly Cloudy
5:30 AM 46.4 °F 40.7 °F 44.6 °F 93% 29.74 in 6.2 mi SSW 12.7 mph - N/A   Mostly Cloudy
6:00 AM 45 °F - 44 °F 95% 29.77 in 16 mi SSW 11.2 mph - -   Mostly Cloudy
6:00 AM 46.4 °F 41.1 °F 44.6 °F 93% 29.74 in 6.2 mi SSW 11.5 mph - N/A   Mostly Cloudy
6:30 AM 46.4 °F 39.8 °F 46.4 °F 100% 29.74 in 6.2 mi SSW 16.1 mph - N/A Rain Light Rain
7:00 AM 47 °F - 45 °F 91% 29.75 in 6 mi SSW 17.9 mph - - Rain Light Rain
7:00 AM 46.4 °F 39.5 °F 44.6 °F 93% 29.74 in 6.2 mi SSW 17.3 mph - N/A Rain Light Rain
7:30 AM 46.4 °F 39.8 °F 46.4 °F 100% 29.74 in 6.2 mi SSW 16.1 mph - N/A Rain Light Rain
8:00 AM 46 °F - 46 °F 97% 29.75 in 7 mi SSW 20.1 mph - - Rain Light Rain
8:00 AM 46.4 °F 39.0 °F 46.4 °F 100% 29.71 in 6.2 mi SSW 19.6 mph - N/A Rain Light Rain
8:30 AM 46.4 °F 39.0 °F 46.4 °F 100% 29.74 in 2.2 mi SSW 19.6 mph 32.2 mph N/A Rain Light Rain
9:00 AM 46 °F - 46 °F 98% 29.75 in 2 mi SSW 17.9 mph - - Rain Light Rain
9:00 AM 46.4 °F 39.5 °F 46.4 °F 100% 29.74 in - SSW 17.3 mph - N/A Rain Light Rain
9:30 AM 46.4 °F 39.5 °F 46.4 °F 100% 29.74 in - SSW 17.3 mph - N/A Rain Light Rain
10:00 AM 47 °F - 46 °F 97% 29.75 in 2 mi SSW 17.9 mph - - Rain Light Rain
10:00 AM 46.4 °F 39.5 °F 46.4 °F 100% 29.74 in 1.6 mi SSW 17.3 mph - N/A Rain Light Rain
10:30 AM 46.4 °F 39.2 °F 46.4 °F 100% 29.74 in 1.6 mi SSW 18.4 mph - N/A Rain Light Rain
11:00 AM 47 °F - 47 °F 100% 29.76 in 1 mi SSW 15.7 mph - - Rain Light Rain
11:00 AM 48.2 °F - 46.4 °F 93% 29.74 in 1.1 mi SSW 15.0 mph - N/A Rain Light Rain
11:30 AM 44.6 °F 37.8 °F 44.6 °F 100% 29.74 in 1.4 mi NW 15.0 mph - N/A Rain Light Rain
12:00 PM 45 °F - 44 °F 96% 29.77 in 11 mi WNW 11.2 mph - - Rain Light Rain
12:00 PM 44.6 °F 38.8 °F 44.6 °F 100% 29.74 in 6.2 mi WNW 11.5 mph - N/A   Mostly Cloudy
12:30 PM 44.6 °F 39.7 °F 44.6 °F 100% 29.74 in 6.2 mi West 9.2 mph - N/A   Mostly Cloudy
1:00 PM 45 °F - 44 °F 93% 29.76 in 19 mi West 8.9 mph - -   Mostly Cloudy
1:00 PM 44.6 °F 40.2 °F 44.6 °F 100% 29.74 in 6.2 mi West 8.1 mph - N/A   Mostly Cloudy
1:30 PM 46.4 °F 42.4 °F 44.6 °F 93% 29.74 in 6.2 mi WSW 8.1 mph - N/A   Mostly Cloudy
2:00 PM 46 °F - 44 °F 90% 29.76 in 25 mi WSW 8.9 mph - -   Mostly Cloudy
2:00 PM 46.4 °F 41.9 °F 44.6 °F 93% 29.74 in 6.2 mi WSW 9.2 mph - N/A   Mostly Cloudy
2:30 PM 46.4 °F 41.9 °F 44.6 °F 93% 29.74 in 6.2 mi WSW 9.2 mph - N/A   Scattered Clouds
3:00 PM 46 °F - 42 °F 79% 29.78 in 31 mi West 11.2 mph - -   Partly Cloudy
3:00 PM 46.4 °F 41.5 °F 41.0 °F 81% 29.74 in 6.2 mi West 10.4 mph - N/A   Scattered Clouds
3:30 PM 46.4 °F 40.7 °F 41.0 °F 81% 29.77 in 6.2 mi West 12.7 mph - N/A   Mostly Cloudy
4:00 PM 44 °F - 37 °F 70% 29.80 in 31 mi West 11.2 mph - -   Scattered Clouds
4:00 PM 44.6 °F 39.2 °F 37.4 °F 76% 29.77 in 6.2 mi West 10.4 mph - N/A   Scattered Clouds
4:30 PM 42.8 °F 36.6 °F 37.4 °F 81% 29.77 in 6.2 mi West 11.5 mph - N/A   Scattered Clouds
5:00 PM 42 °F - 38 °F 79% 29.82 in 31 mi West 8.9 mph - -   Partly Cloudy
5:00 PM 42.8 °F 37.5 °F 37.4 °F 81% 29.80 in 6.2 mi West 9.2 mph - N/A   Scattered Clouds
5:30 PM 41.0 °F 35.2 °F 37.4 °F 87% 29.80 in 6.2 mi West 9.2 mph - N/A   Mostly Cloudy
6:00 PM 41 °F - 36 °F 77% 29.85 in 31 mi WNW 8.9 mph - -   Partly Cloudy
6:00 PM 41.0 °F 35.8 °F 35.6 °F 81% 29.83 in 6.2 mi WNW 8.1 mph - N/A   Scattered Clouds
6:30 PM 41.0 °F 35.2 °F 37.4 °F 87% 29.83 in 6.2 mi WNW 9.2 mph - N/A   Mostly Cloudy
7:00 PM 40 °F - 37 °F 84% 29.88 in 31 mi WNW 8.9 mph - -   Mostly Cloudy
7:00 PM 41.0 °F 35.8 °F 37.4 °F 87% 29.86 in 6.2 mi WNW 8.1 mph - N/A   Mostly Cloudy
7:30 PM 39.2 °F 33.6 °F 37.4 °F 93% 29.86 in 6.2 mi West 8.1 mph - N/A   Scattered Clouds
8:00 PM 39 °F - 37 °F 88% 29.89 in 25 mi WNW 8.9 mph - -   Partly Cloudy
8:00 PM 39.2 °F 33.6 °F 37.4 °F 93% 29.86 in 6.2 mi WNW 8.1 mph - N/A   Scattered Clouds
8:30 PM 39.2 °F 34.2 °F 37.4 °F 93% 29.86 in 6.2 mi NW 6.9 mph - N/A   Partly Cloudy
9:00 PM 38 °F - 36 °F 92% 29.91 in 25 mi NW 8.9 mph - -   Scattered Clouds
9:00 PM 39.2 °F 33.0 °F 37.4 °F 93% 29.89 in 6.2 mi NW 9.2 mph - N/A   Partly Cloudy
9:30 PM 39.2 °F 33.0 °F 35.6 °F 87% 29.89 in 6.2 mi NW 9.2 mph - N/A   Partly Cloudy
10:00 PM 38 °F - 36 °F 89% 29.93 in 25 mi WNW 8.9 mph - -   Scattered Clouds
10:00 PM 39.2 °F 33.6 °F 35.6 °F 87% 29.89 in 6.2 mi WNW 8.1 mph - N/A   Partly Cloudy
10:30 PM 37.4 °F 32.8 °F 35.6 °F 93% 29.92 in 6.2 mi West 5.8 mph - N/A   Partly Cloudy
11:00 PM 37 °F - 35 °F 89% 29.94 in 25 mi WSW 6.7 mph - -   Scattered Clouds
11:00 PM 37.4 °F 32.1 °F 35.6 °F 93% 29.92 in 6.2 mi WSW 6.9 mph - N/A   Partly Cloudy
11:30 PM 37.4 °F 32.8 °F 35.6 °F 93% 29.92 in 6.2 mi WSW 5.8 mph - N/A   Scattered Clouds